Wind_Speed
16 18 20 21 21 23 24 26 27 33 33 33 33 32 31 30 31 31 32 33 34 34 35 35 35 35 36 37 38 40 41 43 44 45 46 46 47 47 47 46 45 44 41 38
17 19 19 21 22 23 25 26 27 30 29 30 31 30 29 28 28 29 30 32 33 33 33 34 34 34 34 35 36 37 38 40 41 43 45 46 46 47 48 47 46 44 43 41
18 18 19 21 23 23 24 24 25 28 29 28 27 28 27 25 26 26 27 28 29 29 29 30 31 31 32 32 32 33 35 36 37 39 40 42 44 46 46 46 45 45 44 44
16 17 19 21 22 21 24 24 24 25 25 25 23 25 26 25 25 25 26 26 26 25 26 27 27 28 28 29 31 32 32 32 33 33 35 37 40 42 44 44 44 45 45 44
14 15 17 19 20 21 22 22 22 21 20 20 20 22 25 24 25 25 25 24 24 24 24 24 25 25 25 26 27 28 28 28 28 28 29 31 34 37 39 41 42 43 43 42
13 14 16 18 19 20 20 19 18 17 17 17 18 20 24 23 24 23 23 23 23 23 22 22 22 22 22 22 22 22 22 23 23 24 25 27 28 31 34 36 39 40 40 40
10 12 14 15 17 17 17 17 16 15 16 17 18 19 21 21 21 21 21 22 21 21 21 20 20 20 20 18 18 18 18 18 18 19 20 21 23 25 27 30 33 35 37 37
11 11 12 14 15 16 15 14 13 9 7 13 15 16 18 19 19 20 20 20 20 20 19 19 19 19 19 17 16 16 15 14 13 14 15 15 16 17 19 22 25 28 31 33
8 10 12 13 14 14 13 12 11 10 8 8 13 15 15 17 18 19 19 20 20 20 20 20 20 19 19 18 17 15 15 13 12 11 11 12 11 12 14 16 19 22 25 26
6 8 10 11 12 12 12 12 11 10 10 8 11 15 17 18 18 19 19 20 20 21 21 21 20 20 20 19 18 17 16 15 14 12 11 11 10 8 9 11 13 16 20 22
6 8 9 11 13 14 13 13 12 11 11 11 11 14 16 17 18 18 18 19 20 21 21 21 20 21 21 20 20 19 18 17 16 15 14 13 11 9 7 5 7 10 13 16
8 10 11 12 14 14 14 13 13 13 12 12 13 14 15 17 17 18 19 19 20 20 21 21 22 22 22 21 21 21 21 19 18 18 17 16 14 12 9 7 6 6 7 11
9 10 12 13 14 14 14 14 14 14 13 13 14 14 15 16 17 19 19 20 20 20 20 21 21 22 22 22 22 22 22 22 21 20 19 18 17 15 12 9 8 7 7 7
11 11 13 14 15 16 16 15 15 15 14 15 14 14 15 16 17 18 19 19 20 20 20 20 21 21 22 22 23 22 23 23 22 21 20 19 18 17 16 13 11 9 8 7
11 11 13 13 13 15 15 15 15 15 15 15 15 14 15 16 17 18 18 19 19 20 20 20 20 21 21 22 22 22 22 22 22 22 22 21 19 18 17 16 14 12 10 9
11 11 12 12 12 13 14 15 15 15 15 15 15 15 15 16 16 17 18 18 19 19 20 20 21 21 22 22 22 22 22 22 22 22 22 21 21 20 19 17 16 15 13 11
9 10 10 11 11 12 13 14 15 15 15 15 15 15 15 15 16 17 18 18 19 19 20 20 21 21 22 22 22 23 23 22 22 22 22 22 21 21 20 19 18 17 15 13
8 9 9 10 11 11 13 13 14 14 14 14 14 14 14 15 15 17 18 18 19 19 19 20 20 20 21 22 23 23 23 23 22 22 22 22 22 23 22 21 20 19 18 15
6 7 8 8 9 10 11 11 12 13 13 14 14 14 14 14 15 16 17 18 18 19 19 19 19 19 20 21 22 22 23 23 23 23 23 24 24 24 24 23 22 21 19 17
6 6 7 7 8 8 9 10 11 12 12 13 13 13 14 14 15 16 16 17 18 18 19 18 18 18 19 20 20 21 22 22 23 23 24 24 25 25 25 24 23 22 21 19
8 8 8 8 8 8 8 8 9 10 12 12 12 13 13 14 15 16 16 17 17 18 18 18 18 18 18 19 20 21 22 22 23 23 24 24 25 26 26 25 24 23 22 21
10 10 10 10 10 9 9 9 9 10 10 11 12 12 13 13 14 15 16 16 17 17 17 17 17 17 18 18 19 20 21 22 22 23 24 24 25 26 26 26 25 24 24 22
12 13 13 13 12 12 11 11 11 10 10 10 11 12 12 13 13 14 15 16 16 16 16 17 17 17 17 18 19 19 20 21 21 22 23 24 25 25 26 26 25 24 24 23
15 15 15 15 15 15 14 14 14 13 13 12 12 12 12 13 13 13 14 15 15 15 16 16 16 16 16 17 18 19 20 20 21 22 22 23 24 25 26 26 25 24 24 24
17 17 17 18 18 17 17 17 16 16 16 15 15 14 14 13 13 13 14 14 14 15 15 15 15 15 15 16 17 18 18 19 20 20 21 22 23 24 24 25 25 24 24 24
21 21 21 20 21 20 19 19 19 19 19 18 18 17 16 15 15 14 14 14 14 14 14 14 14 14 14 15 15 16 17 17 18 19 20 21 22 22 23 24 24 24 24 23
Wind_Direction
272 277 283 290 293 294 294 294 292 292 301 303 305 305 305 304 302 299 297 296 295 295 293 291 288 285 282 280 278 276 274 272 270 268 267 266 265 264 264 263 261 262 261 259
274 279 288 290 293 295 297 297 296 298 305 306 307 307 308 308 306 304 301 300 298 297 295 294 291 288 285 283 282 279 276 273 271 269 267 266 264 263 263 264 263 261 261 260
277 290 294 295 298 301 301 302 302 304 308 307 308 309 312 313 312 311 309 307 305 302 300 298 295 292 289 287 285 283 280 277 274 271 268 265 263 262 262 261 260 259 259 259
284 293 297 300 303 306 306 308 306 307 309 311 315 315 318 323 322 321 319 317 314 311 308 305 301 297 294 291 290 288 286 282 278 273 269 266 263 261 259 258 257 257 258 259
294 297 301 305 309 311 311 312 312 312 313 315 322 321 322 330 329 328 326 325 324 320 316 314 310 306 301 299 297 293 290 286 282 278 273 270 265 261 259 257 255 255 255 255
300 305 309 312 315 316 317 317 316 317 326 331 330 325 325 333 331 332 333 333 332 330 328 325 323 321 315 309 305 301 295 291 287 283 279 276 269 262 259 256 252 251 251 251
304 311 317 320 322 324 325 328 331 337 335 326 328 327 332 336 336 338 340 341 341 342 342 340 339 338 333 326 322 316 308 301 295 292 287 282 275 266 261 256 250 248 248 247
326 335 335 333 332 333 336 339 343 339 310 312 329 337 344 344 346 347 349 352 354 356 356 354 354 355 355 351 346 342 336 324 316 308 301 295 286 275 265 257 250 246 245 245
331 344 345 345 345 346 350 355 354 350 349 340 337 351 355 355 357 359 1 3 6 7 6 5 6 5 5 4 1 0 358 352 343 334 329 323 309 292 273 260 253 247 245 244
350 355 360 3 4 6 8 8 7 7 10 6 347 355 358 1 2 5 7 9 12 14 13 13 13 13 13 14 14 13 13 12 10 6 358 351 344 325 288 263 260 253 247 243
24 19 23 21 21 20 20 21 21 18 21 15 5 6 4 5 6 8 10 13 15 17 18 18 19 19 20 21 22 22 22 21 20 18 16 14 6 360 350 302 276 266 253 245
42 33 36 35 31 28 28 28 26 23 23 20 16 18 13 14 17 17 16 16 18 20 21 25 27 26 26 28 29 29 29 29 28 27 25 24 23 21 13 359 342 313 278 259
48 41 43 47 42 36 34 32 30 28 24 25 24 25 20 21 21 21 21 22 23 24 24 26 27 28 29 31 32 32 32 32 31 28 26 26 26 24 17 7 355 339 314 287
51 47 44 44 42 38 36 35 34 31 29 29 28 25 22 20 20 20 22 23 24 25 25 26 28 29 30 31 31 31 30 30 30 29 28 27 25 24 21 15 7 355 338 313
50 47 47 47 43 38 37 36 33 31 29 28 25 23 20 18 19 18 19 20 22 24 24 25 26 26 26 27 27 27 28 28 29 28 28 27 25 22 18 15 11 3 353 338
46 44 44 45 43 39 36 34 32 30 28 27 24 21 19 18 18 18 19 20 21 22 23 25 24 24 24 23 24 24 24 25 25 26 26 24 23 20 16 13 7 360 352 341
39 37 37 39 40 37 35 30 29 26 24 22 21 21 20 22 22 21 20 20 19 19 21 22 23 24 24 24 24 24 24 24 24 23 23 22 21 18 15 11 6 1 355 346
26 27 30 31 34 36 32 29 25 24 23 23 22 22 22 21 19 18 17 17 17 18 18 18 19 21 23 24 24 24 24 23 23 22 20 19 17 15 13 11 7 4 1 356
359 8 14 18 25 31 29 25 23 21 22 22 21 20 19 17 15 13 12 13 15 15 16 17 18 19 20 21 22 22 23 23 22 21 20 18 16 14 13 11 9 7 6 3
321 334 345 356 3 12 17 17 17 17 18 15 15 14 13 12 11 10 10 11 12 13 14 15 17 17 18 18 19 20 20 20 20 19 18 18 17 15 14 13 12 12 12 12
298 305 314 324 334 344 350 355 1 5 9 9 9 7 6 7 7 7 7 9 10 11 12 14 15 16 17 17 17 18 18 18 18 17 17 16 16 16 16 16 17 17 17 18
288 292 296 302 309 319 322 326 334 344 351 356 359 360 1 1 3 4 4 5 5 6 8 11 13 14 15 15 15 16 16 16 17 17 17 16 16 17 18 19 20 22 23 24
283 288 291 294 297 300 303 307 310 316 325 333 340 345 347 350 353 356 359 0 1 2 4 6 8 11 12 13 13 14 15 15 16 17 18 18 18 18 20 22 23 25 27 28
278 281 284 286 288 290 292 294 297 299 302 309 316 324 331 336 340 344 348 352 355 357 359 1 3 5 7 9 11 13 15 16 16 17 18 19 20 21 22 24 26 28 30 32
275 274 277 279 280 283 285 288 289 291 293 295 299 304 310 317 324 329 334 339 343 347 350 353 355 358 0 3 6 9 12 14 16 17 19 20 21 22 24 26 27 30 31 33
271 272 272 273 275 277 279 280 283 285 287 288 290 293 297 301 306 313 320 326 331 335 340 344 347 350 352 355 358 2 6 10 12 15 18 20 21 23 25 27 29 31 33 35
Height
5905 5905 5903 5902 5901 5900 5898 5896 5893 5886 5884 5880 5876 5872 5868 5866 5862 5858 5855 5851 5848 5846 5842 5840 5837 5835 5833 5832 5830 5829 5829 5828 5828 5829 5829 5831 5832 5834 5836 5838 5841 5844 5847 5849
5902 5901 5901 5899 5897 5896 5893 5891 5887 5882 5879 5875 5871 5867 5863 5860 5856 5853 5849 5845 5841 5838 5835 5831 5829 5826 5824 5822 5820 5819 5818 5817 5817 5817 5817 5819 5820 5823 5825 5828 5831 5834 5837 5840
5898 5898 5897 5895 5893 5891 5888 5886 5882 5878 5874 5870 5866 5862 5858 5855 5851 5847 5843 5839 5835 5831 5828 5824 5821 5818 5816 5814 5811 5809 5808 5806 5806 5805 5806 5807 5808 5810 5813 5816 5820 5823 5827 5831
5896 5895 5894 5892 5889 5887 5884 5881 5877 5873 5869 5865 5863 5858 5853 5850 5846 5842 5838 5834 5830 5826 5822 5818 5815 5811 5808 5806 5803 5800 5798 5797 5795 5795 5795 5796 5797 5799 5801 5804 5808 5812 5816 5820
5894 5893 5891 5889 5886 5883 5880 5876 5873 5869 5866 5862 5859 5855 5851 5848 5843 5839 5835 5831 5826 5822 5817 5813 5810 5806 5802 5799 5796 5793 5790 5788 5787 5786 5786 5786 5786 5788 5790 5793 5796 5800 5804 5809
5892 5890 5888 5886 5883 5880 5876 5873 5870 5866 5863 5860 5857 5855 5849 5846 5842 5838 5833 5828 5823 5819 5814 5810 5805 5801 5797 5793 5790 5787 5784 5782 5780 5779 5778 5777 5777 5778 5780 5782 5785 5789 5794 5798
5890 5888 5886 5883 5880 5877 5874 5870 5867 5863 5860 5859 5857 5854 5851 5846 5841 5836 5832 5827 5822 5817 5812 5807 5803 5798 5794 5789 5786 5782 5779 5777 5775 5773 5772 5771 5770 5770 5771 5773 5776 5780 5784 5788
5888 5887 5884 5881 5879 5875 5871 5869 5866 5864 5862 5859 5855 5853 5850 5845 5841 5836 5831 5826 5821 5816 5812 5807 5802 5797 5793 5788 5784 5780 5777 5774 5771 5769 5768 5766 5765 5764 5765 5766 5768 5771 5775 5779
5888 5886 5883 5880 5877 5874 5870 5867 5865 5863 5860 5858 5855 5852 5849 5845 5841 5836 5831 5827 5822 5817 5812 5807 5803 5798 5793 5789 5784 5780 5776 5773 5770 5768 5766 5764 5761 5760 5760 5761 5762 5765 5768 5771
5887 5885 5883 5880 5877 5874 5871 5867 5865 5862 5860 5858 5856 5852 5849 5845 5841 5837 5832 5828 5823 5819 5814 5809 5804 5799 5795 5790 5786 5781 5777 5774 5770 5767 5765 5763 5760 5758 5758 5758 5759 5760 5762 5765
5887 5886 5884 5880 5877 5874 5871 5868 5865 5863 5860 5858 5856 5855 5850 5846 5842 5838 5834 5830 5825 5821 5816 5811 5806 5802 5797 5792 5788 5783 5779 5776 5772 5769 5766 5763 5760 5758 5757 5757 5757 5757 5759 5761
5887 5886 5883 5880 5877 5874 5872 5869 5867 5864 5861 5859 5856 5857 5851 5848 5844 5840 5836 5832 5827 5823 5819 5814 5809 5805 5800 5795 5791 5787 5782 5778 5775 5772 5768 5765 5762 5760 5759 5757 5757 5757 5758 5759
5887 5886 5884 5881 5881 5877 5874 5871 5868 5865 5863 5860 5858 5858 5852 5849 5846 5842 5838 5834 5830 5826 5821 5817 5813 5808 5804 5799 5795 5790 5786 5782 5778 5775 5772 5768 5765 5763 5761 5759 5758 5757 5757 5757
5888 5887 5885 5883 5880 5878 5875 5873 5870 5867 5865 5862 5860 5857 5855 5852 5848 5845 5841 5837 5833 5829 5825 5820 5816 5812 5808 5803 5799 5794 5790 5786 5782 5778 5775 5772 5768 5766 5763 5761 5759 5758 5757 5756
5889 5888 5886 5884 5881 5879 5877 5875 5872 5869 5867 5864 5862 5859 5857 5854 5851 5847 5843 5840 5836 5832 5828 5824 5819 5815 5811 5807 5802 5798 5794 5790 5786 5782 5778 5775 5772 5769 5766 5763 5760 5758 5756 5755
5890 5889 5887 5885 5883 5881 5879 5877 5874 5872 5869 5866 5864 5862 5858 5856 5853 5849 5846 5842 5838 5835 5831 5827 5823 5818 5814 5810 5806 5801 5797 5793 5789 5786 5782 5778 5774 5771 5768 5764 5761 5758 5756 5754
5892 5890 5889 5887 5885 5883 5881 5879 5876 5874 5871 5869 5866 5864 5860 5858 5855 5852 5848 5845 5841 5837 5833 5830 5826 5822 5817 5813 5809 5805 5801 5797 5793 5789 5785 5781 5777 5773 5769 5766 5762 5758 5755 5752
5893 5891 5889 5888 5886 5884 5884 5880 5878 5876 5873 5870 5868 5865 5863 5860 5857 5854 5851 5847 5843 5840 5836 5832 5828 5824 5821 5817 5812 5808 5804 5800 5796 5792 5788 5783 5779 5775 5771 5766 5762 5758 5754 5751
5893 5892 5890 5889 5887 5885 5884 5881 5879 5877 5875 5872 5870 5867 5864 5862 5859 5856 5853 5849 5846 5842 5838 5835 5831 5827 5824 5820 5816 5811 5807 5803 5799 5795 5790 5786 5781 5777 5772 5767 5762 5758 5754 5750
5892 5892 5891 5889 5887 5886 5886 5882 5880 5879 5876 5874 5871 5868 5866 5863 5861 5859 5855 5851 5847 5844 5841 5837 5833 5830 5826 5822 5819 5815 5811 5806 5802 5798 5793 5788 5783 5779 5774 5768 5763 5758 5754 5749
5891 5891 5890 5888 5887 5886 5885 5882 5881 5880 5879 5875 5872 5869 5867 5864 5862 5859 5856 5852 5849 5846 5843 5839 5836 5832 5829 5825 5821 5817 5813 5809 5805 5800 5796 5791 5786 5781 5775 5770 5764 5759 5755 5750
5889 5889 5888 5887 5886 5887 5884 5882 5881 5880 5877 5875 5872 5870 5868 5865 5862 5860 5857 5854 5851 5848 5844 5841 5838 5834 5831 5827 5824 5820 5816 5812 5807 5803 5798 5793 5789 5784 5778 5772 5767 5762 5757 5753
5887 5887 5886 5886 5886 5884 5882 5881 5880 5878 5876 5874 5872 5870 5868 5865 5863 5860 5858 5855 5852 5849 5846 5843 5839 5836 5833 5829 5826 5822 5818 5814 5810 5805 5801 5796 5792 5787 5781 5776 5771 5766 5761 5757
5883 5883 5882 5882 5881 5881 5880 5879 5877 5876 5875 5873 5871 5869 5867 5865 5863 5861 5858 5855 5852 5850 5847 5844 5841 5837 5834 5831 5827 5824 5820 5816 5812 5808 5804 5799 5795 5790 5785 5780 5775 5770 5766 5761
5879 5878 5878 5878 5877 5877 5876 5875 5874 5873 5872 5871 5869 5868 5866 5864 5862 5860 5857 5855 5852 5850 5847 5844 5841 5838 5835 5832 5829 5825 5822 5818 5815 5811 5807 5802 5798 5793 5789 5784 5780 5775 5771 5766
5873 5873 5873 5873 5872 5872 5872 5871 5870 5869 5868 5867 5866 5865 5863 5862 5860 5858 5856 5854 5851 5849 5847 5844 5841 5838 5836 5833 5830 5827 5823 5820 5817 5813 5809 5805 5801 5797 5793 5788 5784 5780 5775 5771